User: anonymous   Login
Location: Unspecified
(0.0000°N, 0.0000°E)
Time: 02:09:06
(UTC+00:00)
Language:

ONEWEB-0705 - Orbit

View from above orbital plane
View from above orbital plane
View from above satellite
View from above satellite

Ground track
Ground track

The orbit is defined by the following mean orbital elements,

1 61610U          26145.39624551 +.00000000 +00000-0 +18445-2 0 00004
2 61610  87.8859  40.7953 0002045 112.9026 247.2317 13.10373647    02
Epoch (UTC): 25 May 2026 09:30:35
Eccentricity: 0.0002045
inclination: 87.8859°
perigee height: 1220 km
apogee height: 1223 km
right ascension of ascending node: 40.7953°
argument of perigee: 112.9026°
revolutions per day: 13.10373647
mean anomaly at epoch: 247.2317°

The dashed part of the orbit path shows where the satellite is in the earth's shadow,  

DLR